This demonstration page uses our WeatherBlox Daily Observations layout. Learn more.

Left ArrowRight Arrow

40.92945, -100.16068

Hourly Observations for February 11, 2016

Temp ( °F °C ) Dew Point ( °F °C ) Humidity (%) Winds ( mph kmh ) Pressure ( in mb ) Visibility ( mi km ) Precip ( " mm )
12:15 am 00:15 Clear 32 0.2 28 -2.4 83 83 NE 10 17 30.24 1024 10 16 N/A
12:35 am 00:35 Clear 31 -0.8 27 -3 85 85 ENE 7 11 30.24 1024 10 16 N/A
12:55 am 00:55 Clear 29 -1.5 26 -3.5 86 86 NE 6 9 30.24 1024 10 16 N/A
1:15 am 01:15 Clear 29 -1.7 25 -3.7 86 86 NE 7 11 30.27 1025 10 16 N/A
1:35 am 01:35 Clear 28 -2.1 25 -4 87 87 ENE 3 6 30.30 1026 10 16 N/A
1:55 am 01:55 Clear 27 -2.7 24 -4.5 88 88 ESE 3 6 30.30 1026 10 16 N/A
2:15 am 02:15 Clear 28 -2.1 25 -4 87 87 N N/A 30.30 1026 10 16 N/A
2:35 am 02:35 Mostly Cloudy 28 -2.5 24 -4.3 88 88 E 3 6 30.30 1026 10 16 N/A
2:55 am 02:55 Cloudy 28 -2.1 25 -4 87 87 N N/A 30.30 1026 10 16 N/A
3:15 am 03:15 Cloudy 29 -1.8 26 -3.6 88 88 N N/A 30.30 1026 10 16 N/A
3:35 am 03:35 Cloudy 29 -1.6 26 -3.5 87 87 N N/A 30.30 1026 10 16 N/A
3:55 am 03:55 Cloudy 29 -1.6 26 -3.5 87 87 N N/A 30.30 1026 10 16 N/A
4:15 am 04:15 Cloudy 29 -1.5 26 -3.2 88 88 N N/A 30.30 1026 10 16 N/A
4:35 am 04:35 Cloudy 29 -1.4 27 -3 89 89 N N/A 30.30 1026 10 16 N/A
4:55 am 04:55 Cloudy 30 -1.3 27 -3 88 88 NNW 3 6 30.30 1026 10 16 N/A
5:15 am 05:15 Cloudy 30 -1.1 27 -2.8 88 88 NW 3 6 30.30 1026 10 16 N/A
5:35 am 05:35 Cloudy 30 -1 27 -2.7 88 88 NW 3 6 30.30 1026 10 16 N/A
5:55 am 05:55 Cloudy 30 -1 27 -2.7 88 88 N N/A 30.30 1026 10 16 N/A
6:15 am 06:15 Cloudy 30 -1 27 -2.7 88 88 N N/A 30.30 1026 10 16 N/A
6:35 am 06:35 Cloudy 30 -1.1 27 -2.7 89 89 N N/A 30.24 1024 10 16 N/A
6:55 am 06:55 Cloudy 30 -1.1 27 -2.6 90 90 SE 3 6 30.24 1024 10 16 N/A
7:15 am 07:15 Cloudy 30 -1.1 27 -2.6 90 90 N N/A 30.30 1026 10 16 N/A
7:35 am 07:35 Cloudy 30 -1.2 27 -2.6 90 90 S 3 6 30.30 1026 10 16 N/A
7:55 am 07:55 Cloudy 30 -1.1 28 -2.5 90 90 SSE 5 7 30.30 1026 7 11 N/A
8:15 am 08:15 Cloudy 30 -1.2 27 -2.6 90 90 SSE 7 11 30.30 1026 7 11 N/A
8:35 am 08:35 Cloudy 30 -1.1 28 -2.5 90 90 S 6 9 30.30 1026 7 11 N/A
8:55 am 08:55 Cloudy with Mist and Fog 30 -1.2 28 -2.5 91 91 S 6 9 30.30 1026 5 8 N/A
9:15 am 09:15 Cloudy with Mist and Fog 30 -1.2 28 -2.4 92 92 S 9 15 30.30 1026 5 8 N/A
9:35 am 09:35 Cloudy with Mist and Fog 30 -1.2 28 -2.4 92 92 S 10 17 30.30 1026 4 6 N/A
9:55 am 09:55 Cloudy with Mist and Fog 30 -1.2 28 -2.3 92 92 S 9 15 30.30 1026 3 5 N/A
10:15 am 10:15 Cloudy with Mist and Fog 30 -1.1 28 -2.2 92 92 S 12 19 30.30 1026 4 6 N/A
10:35 am 10:35 Cloudy with Mist and Fog 30 -1.1 28 -2.3 92 92 S 10 17 30.30 1026 4 6 N/A
10:55 am 10:55 Cloudy with Mist and Fog 30 -1.1 28 -2.3 92 92 S 14 22 30.24 1024 4 6 N/A
11:15 am 11:15 Cloudy with Mist and Fog 30 -1 28 -2.1 92 92 S 13 20 30.24 1024 3 5 N/A
11:35 am 11:35 Cloudy with Mist and Fog 30 -1 28 -2.2 92 92 S 13 20 30.24 1024 4 6 N/A
11:55 am 11:55 Cloudy 31 -0.6 28 -2.1 90 90 S 12 19 30.21 1023 7 11 N/A
12:15 pm 12:15 Cloudy 31 -0.4 28 -2 89 89 S 16 26 30.21 1023 7 11 N/A
12:35 pm 12:35 Cloudy 32 undefined 29 -1.8 88 88 S 12 19 30.21 1023 7 11 N/A
12:55 pm 12:55 Cloudy 32 undefined 28 -2 87 87 S 9 15 30.21 1023 7 11 N/A
1:15 pm 13:15 Cloudy 32 0.2 29 -1.8 87 87 SSW 10 17 30.18 1022 10 16 N/A
1:35 pm 13:35 Cloudy 33 0.5 29 -1.6 86 86 SW 10 17 30.18 1022 10 16 N/A
1:55 pm 13:55 Cloudy 33 0.7 29 -1.5 85 85 SSW 13 20 30.18 1022 10 16 N/A
2:15 pm 14:15 Cloudy 34 1 29 -1.5 84 84 SSW 12 19 30.12 1020 10 16 N/A
2:35 pm 14:35 Cloudy 34 1.3 30 -1.1 84 84 SSW 10 17 30.12 1020 10 16 N/A
2:55 pm 14:55 Mostly Cloudy 35 1.5 30 -1.1 83 83 SSW 8 13 30.12 1020 10 16 N/A
3:15 pm 15:15 Partly Cloudy 36 2 31 -0.8 82 82 SW 9 15 30.12 1020 10 16 N/A
3:35 pm 15:35 Partly Cloudy 37 2.5 31 -0.7 80 80 SSW 7 11 30.12 1020 10 16 N/A
3:55 pm 15:55 Partly Cloudy 38 3.6 31 -0.4 75 75 WSW 7 11 30.09 1019 10 16 N/A
4:15 pm 16:15 Partly Cloudy 39 4 31 -0.3 74 74 SW 8 13 30.09 1019 10 16 N/A
4:35 pm 16:35 Partly Cloudy 40 4.5 32 undefined 73 73 SSW 7 11 30.09 1019 10 16 N/A
4:55 pm 16:55 Sunny 40 4.7 32 undefined 72 72 WSW 6 9 30.09 1019 10 16 N/A
5:15 pm 17:15 Sunny 40 4.7 32 undefined 72 72 SW 7 11 30.09 1019 10 16 N/A
5:35 pm 17:35 Sunny 40 4.3 32 undefined 74 74 SW 5 7 30.09 1019 10 16 N/A
5:55 pm 17:55 Sunny 38 3.5 31 -0.4 76 76 WSW 3 6 30.15 1021 10 16 N/A
6:15 pm 18:15 Clear 36 2 31 -0.7 83 83 SW 7 11 30.15 1021 10 16 N/A
6:35 pm 18:35 Clear 35 1.9 31 -0.7 83 83 SW 7 11 30.15 1021 10 16 N/A
6:55 pm 18:55 Clear 35 1.7 31 -0.8 84 84 SW 3 6 30.18 1022 10 16 N/A
7:15 pm 19:15 Partly Cloudy 35 1.5 30 -0.9 84 84 SSW 3 6 30.18 1022 10 16 N/A
7:35 pm 19:35 Partly Cloudy 34 1 30 -1.1 86 86 W 3 6 30.21 1023 10 16 N/A
7:55 pm 19:55 Clear 32 undefined 29 -1.7 88 88 W 3 6 30.21 1023 10 16 N/A
8:15 pm 20:15 Clear 31 -0.5 28 -2.2 88 88 NW 5 7 30.21 1023 10 16 N/A
8:35 pm 20:35 Partly Cloudy 32 -0.2 28 -2.1 87 87 NNW 6 9 30.21 1023 10 16 N/A
8:55 pm 20:55 Partly Cloudy 32 undefined 29 -1.8 88 88 NW 6 9 30.24 1024 10 16 N/A
9:15 pm 21:15 Partly Cloudy 32 undefined 29 -1.6 89 89 WNW 6 9 30.24 1024 10 16 N/A
9:35 pm 21:35 Partly Cloudy 31 -0.8 28 -2.5 88 88 NW 5 7 30.30 1026 10 16 N/A
9:55 pm 21:55 Clear 30 -0.9 27 -2.6 88 88 W 7 11 30.30 1026 10 16 N/A
10:15 pm 22:15 Clear 31 -0.8 27 -2.7 87 87 W 8 13 30.30 1026 10 16 N/A
10:35 pm 22:35 Clear 31 -0.5 28 -2.5 87 87 WNW 7 11 30.30 1026 10 16 N/A
10:55 pm 22:55 Clear 31 -0.6 27 -2.7 86 86 NW 7 11 30.33 1027 10 16 N/A
11:15 pm 23:15 Clear 31 -0.5 27 -2.8 85 85 WNW 7 11 30.30 1026 10 16 N/A
11:35 pm 23:35 Clear 32 -0.2 28 -2.4 85 85 NW 9 15 30.30 1026 10 16 N/A
11:55 pm 23:55 Clear 32 -0.2 27 -2.6 84 84 NW 7 11 30.30 1026 10 16 N/A

Powered by AerisWeather